BADR-5

Last updated on Sun Apr 12 2026 00:02:52 GMT+0000 (Coordinated Universal Time)

1 36592U 10025A 26101.31193617 .00000146 00000+0 00000+0 0 9993 2 36592 0.0597 108.7117 0002719 322.4603 266.6367 1.00272430 52543
UTC large
Height (km)
Speed (km/s)
/
Latitude / Longitude
Inclination (degrees)
Orbital Period (minutes)
Azimuth
Elevation
Range (km)
Doppler Factor

Next 0 passes for location: London (51.5072 / 0.1276)

Sorry there are no passes over London.
BADR-5